This demonstration page uses our WeatherBlox Daily Observations layout. Learn more.

Left ArrowRight Arrow

Hourly Observations for January 29, 2016

Temp ( °F °C ) Dew Point ( °F °C ) Humidity (%) Winds ( mph kmh ) Pressure ( in mb ) Visibility ( mi km ) Precip ( " mm )
12:53 am 00:53 Clear 40 4.4 27 -2.8 60 60 SSW 3 6 30.04 1017 10 16 0.00 0.00
1:53 am 01:53 Clear 40 4.4 26 -3.3 58 58 WNW 5 7 30.01 1016 10 16 0.00 0.00
2:53 am 02:53 Clear 41 5 24 -4.4 51 51 SW 7 11 30.00 1016 10 16 0.00 0.00
3:53 am 03:53 Clear 37 2.8 24 -4.4 59 59 W 3 6 29.99 1016 10 16 0.00 0.00
4:53 am 04:53 Clear 39 3.9 23 -5 53 53 W 6 9 29.97 1015 10 16 0.00 0.00
5:53 am 05:53 Clear 39 3.9 24 -4.4 55 55 Calm 29.98 1015 10 16 0.00 0.00
6:53 am 06:53 Clear 34 1.1 24 -4.4 67 67 S 8 13 29.99 1016 10 16 0.00 0.00
7:53 am 07:53 Sunny 33 0.6 25 -3.9 72 72 S 6 9 30.01 1016 10 16 0.00 0.00
8:53 am 08:53 Sunny 41 5 28 -2.2 60 60 S 7 11 30.01 1016 10 16 0.00 0.00
9:53 am 09:53 Sunny 56 13.3 25 -3.9 30 30 WSW 10 17 29.99 1016 10 16 0.00 0.00
10:53 am 10:53 Sunny 62 16.7 24 -4.4 23 23 WSW 14 22 29.98 1015 10 16 0.00 0.00
11:53 am 11:53 Sunny 66 18.9 23 -5 19 19 WSW 16 26 29.95 1014 10 16 0.00 0.00
12:53 pm 12:53 Sunny 71 21.7 24 -4.4 17 17 WSW 13 20 29.92 1013 10 16 0.00 0.00
1:53 pm 13:53 Sunny 74 23.3 23 -5 15 15 SW 16 26 29.85 1011 10 16 0.00 0.00
2:53 pm 14:53 Sunny 75 23.9 20 -6.7 12 12 SW 22 35 29.80 1009 10 16 0.00 0.00
3:53 pm 15:53 Sunny 75 23.9 17 -8.3 11 11 W 20 31 29.80 1009 10 16 0.00 0.00
4:53 pm 16:53 Sunny 75 23.9 16 -8.9 10 10 W 20 31 29.79 1009 10 16 0.00 0.00
5:53 pm 17:53 Sunny 72 22.2 15 -9.4 11 11 W 13 20 29.80 1009 10 16 0.00 0.00
6:53 pm 18:53 Clear 61 16.1 17 -8.3 18 18 SW 9 15 29.83 1010 10 16 0.00 0.00
7:53 pm 19:53 Clear 58 14.4 17 -8.3 20 20 WSW 9 15 29.85 1011 10 16 0.00 0.00
8:53 pm 20:53 Clear 54 12.2 18 -7.8 24 24 W 7 11 29.85 1011 10 16 0.00 0.00
9:53 pm 21:53 Clear 54 12.2 17 -8.3 23 23 W 13 20 29.83 1010 10 16 0.00 0.00
10:53 pm 22:53 Clear 53 11.7 17 -8.3 24 24 W 14 22 29.83 1010 10 16 0.00 0.00
11:53 pm 23:53 Clear 50 10 18 -7.8 28 28 NNW 5 7 29.84 1010 10 16 0.00 0.00

Powered by AerisWeather